This demonstration page uses our WeatherBlox Daily Observations layout. Learn more.

Left ArrowRight Arrow

Hourly Observations for October 7, 2020

Temp ( °F °C ) Dew Point ( °F °C ) Humidity (%) Winds ( mph kmh ) Pressure ( in mb ) Visibility ( mi km ) Precip ( " mm )
12:53 am 00:53 Clear 68 20 44 6.7 42 42 ESE 9 15 29.95 1014 10 16 0.00 0.00
1:53 am 01:53 Clear 66 18.9 44 6.7 45 45 SE 8 13 29.94 1014 10 16 0.00 0.00
2:53 am 02:53 Clear 64 17.8 44 6.7 48 48 ESE 7 11 29.94 1014 10 16 0.00 0.00
3:53 am 03:53 Clear 65 18.3 44 6.7 47 47 E 7 11 29.93 1014 10 16 0.00 0.00
4:53 am 04:53 Clear 63 17.2 44 6.7 50 50 ESE 8 13 29.93 1014 10 16 0.00 0.00
5:53 am 05:53 Clear 63 17.2 45 7.2 52 52 ESE 7 11 29.93 1014 10 16 0.00 0.00
6:53 am 06:53 Clear 58 14.4 44 6.7 60 60 E 5 7 29.96 1015 10 16 0.00 0.00
7:53 am 07:53 Sunny 56 13.3 44 6.7 65 65 E 5 7 29.99 1016 10 16 0.00 0.00
8:53 am 08:53 Sunny 59 15 45 7.2 60 60 E 3 6 30.00 1016 10 16 0.00 0.00
9:53 am 09:53 Sunny 68 20 48 8.9 49 49 SSE 8 13 29.99 1016 10 16 0.00 0.00
10:53 am 10:53 Sunny 73 22.8 48 8.9 41 41 SSE 5 7 30.00 1016 10 16 0.00 0.00
11:53 am 11:53 Sunny 81 27.2 47 8.3 30 30 VRB 3 6 29.98 1015 10 16 0.00 0.00
12:53 pm 12:53 Sunny 86 30 40 4.4 20 20 S 12 19 29.96 1015 10 16 0.00 0.00
1:53 pm 13:53 Sunny 89 31.7 33 0.6 14 14 S 15 24 29.93 1014 9 14 0.00 0.00
2:53 pm 14:53 Hazy 89 31.7 33 0.6 14 14 S 10 17 29.91 1013 6 10 0.00 0.00
3:53 pm 15:53 Hazy 91 32.8 30 -1.1 11 11 SE 12 19 29.88 1012 6 10 0.00 0.00
4:53 pm 16:53 Sunny 90 32.2 25 -3.9 9 9 ESE 8 13 29.87 1012 7 11 0.00 0.00
5:53 pm 17:53 Sunny 89 31.7 29 -1.7 11 11 SE 6 9 29.87 1011 8 13 0.00 0.00
6:53 pm 18:53 Sunny 86 30 30 -1.1 13 13 SE 9 15 29.88 1012 8 13 0.00 0.00
7:53 pm 19:53 Clear 80 26.7 33 0.6 18 18 ESE 8 13 29.91 1013 10 16 0.00 0.00
8:53 pm 20:53 Clear 77 25 34 1.1 21 21 ESE 9 15 29.92 1013 10 16 0.00 0.00
9:53 pm 21:53 Clear 73 22.8 36 2.2 26 26 SE 9 15 29.93 1014 10 16 0.00 0.00
10:53 pm 22:53 Clear 68 20 38 3.3 33 33 SE 9 15 29.94 1014 10 16 0.00 0.00
11:53 pm 23:53 Clear 66 18.9 40 4.4 39 39 SE 9 15 29.93 1013 10 16 0.00 0.00

Powered by AerisWeather